Hayward, WI

2:55 AM CST on December 07, 2016 (GMT -0600)
Sawyer County

Weather History for KHYR - August, 2013

Change the Weather History Date:

Monday, August 5, 2013

  Actual Average Record
Temperature  
Mean Temperature 62 °F -  
Max Temperature 73 °F 84 °F 91 °F (2001)
Min Temperature 52 °F 60 °F 37 °F (1997)
Degree Days  
Heating Degree Days 3    
Growing Degree Days 12 (Base 50)    
Moisture  
Dew Point 59 °F    
Average Humidity 89    
Maximum Humidity 100    
Minimum Humidity 73    
Precipitation  
Precipitation 0.42 in - - ()
Sea Level Pressure  
Sea Level Pressure 29.91 in    
Wind  
Wind Speed 2 mph (SSW)    
Max Wind Speed 8 mph    
Max Gust Speed -    
Visibility 8 miles    
Events Rain    
Averages and records for this station are not official NWS values.
T = Trace of Precipitation, MM = Missing Value Source: NWS Daily Summary

Daily Weather History Graph

Daily Weather History Graph

Search for Another Location

Airport or City:

Trip Planner

Search our weather history database for the weather conditions in past years. The results will help you decide how hot, cold, wet, or windy it might be!

Date:

Astronomy

Aug. 05, 2013 Rise Set
Actual Time 5:53 AM CDT 8:29 PM CDT
Civil Twilight 5:19 AM CDT 9:03 PM CDT
Nautical Twilight 4:36 AM CDT 9:45 PM CDT
Astronomical Twilight 3:46 AM CDT 10:34 PM CDT
Moon 4:49 AM CDT (8/5) 7:27 PM CDT (8/5)
Length of Visible Light 15h 43m
Length of Day
14h 36m
Waning Crescent, 1% of the Moon is Illuminated
Aug 5
Waning Crescent
Aug 6
New
Aug 14
First Quarter
Aug 20
Full
Aug 28
Last Quarter

Hourly Weather History & Observations

Time (CDT) Temp. Dew Point Humidity Pressure Visibility Wind Dir Wind Speed Gust Speed Precip Events Conditions
12:53 AM 52.0 °F 48.9 °F 89% 30.03 in 10.0 mi Calm Calm - N/A   Mostly Cloudy
1:53 AM 53.1 °F 51.1 °F 93% 30.03 in 10.0 mi Calm Calm - N/A   Mostly Cloudy
2:53 AM 52.0 °F 48.9 °F 89% 30.01 in 10.0 mi Calm Calm - N/A   Clear
3:41 AM 53.6 °F 53.6 °F 100% 30.05 in 1.8 mi Calm Calm - 0.06 in Rain Heavy Rain
3:49 AM 55.4 °F 53.6 °F 94% 30.04 in 3.0 mi Calm Calm - 0.08 in Rain Rain
3:53 AM 55.0 °F 54.0 °F 96% 30.04 in 4.0 mi Calm Calm - 0.09 in Rain Rain
4:53 AM 57.0 °F 55.0 °F 93% 29.99 in 4.0 mi South 3.5 mph - 0.12 in Rain Rain
5:36 AM 57.2 °F 55.4 °F 94% 29.97 in 10.0 mi Calm Calm - 0.02 in   Overcast
5:53 AM 57.9 °F 55.0 °F 90% 29.96 in 10.0 mi SE 4.6 mph - 0.02 in   Overcast
6:45 AM 57.2 °F 55.4 °F 94% 29.95 in 10.0 mi South 3.5 mph - N/A   Overcast
6:53 AM 57.0 °F 55.9 °F 96% 29.95 in 10.0 mi Variable 4.6 mph - N/A   Overcast
7:12 AM 57.2 °F 55.4 °F 94% 29.95 in 10.0 mi South 5.8 mph - N/A   Overcast
7:53 AM 57.9 °F 57.0 °F 97% 29.94 in 10.0 mi South 8.1 mph - 0.00 in Rain Light Rain
8:53 AM 59.0 °F 57.9 °F 96% 29.94 in 10.0 mi SSW 6.9 mph - 0.03 in Rain Light Rain
9:53 AM 60.1 °F 59.0 °F 96% 29.93 in 6.0 mi Variable 4.6 mph - 0.02 in Rain Light Rain
10:38 AM 60.8 °F 59.0 °F 94% 29.92 in 1.8 mi Calm Calm - 0.05 in Rain Rain
10:53 AM 60.1 °F 59.0 °F 96% 29.92 in 2.5 mi Calm Calm - 0.08 in Rain Light Rain
11:05 AM 60.8 °F 60.8 °F 100% 29.91 in 5.0 mi Variable 3.5 mph - 0.01 in Rain Light Rain
11:53 AM 62.1 °F 60.1 °F 93% 29.91 in 7.0 mi Variable 3.5 mph - 0.04 in Rain Light Rain
12:13 PM 62.6 °F 60.8 °F 94% 29.90 in 2.0 mi SSW 3.5 mph - 0.02 in Rain Light Rain
12:23 PM 62.6 °F 60.8 °F 94% 29.90 in 6.0 mi South 4.6 mph - 0.02 in Rain Light Rain
12:53 PM 63.0 °F 61.0 °F 93% 29.90 in 10.0 mi Calm Calm - 0.02 in   Overcast
1:53 PM 64.9 °F 62.1 °F 90% 29.89 in 10.0 mi Variable 3.5 mph - N/A   Overcast
2:12 PM 66.2 °F 62.6 °F 88% 29.88 in 10.0 mi SSW 4.6 mph - N/A   Overcast
2:28 PM 66.2 °F 62.6 °F 88% 29.88 in 10.0 mi SW 3.5 mph - N/A   Overcast
2:53 PM 66.9 °F 62.1 °F 84% 29.87 in 10.0 mi SSW 3.5 mph - N/A   Overcast
3:32 PM 69.8 °F 62.6 °F 78% 29.86 in 10.0 mi SSW 4.6 mph - N/A   Mostly Cloudy
3:53 PM 69.1 °F 63.0 °F 81% 29.86 in 10.0 mi South 3.5 mph - N/A   Overcast
4:10 PM 69.8 °F 62.6 °F 78% 29.85 in 10.0 mi Variable 3.5 mph - N/A   Mostly Cloudy
4:53 PM 72.0 °F 63.0 °F 73% 29.84 in 10.0 mi Variable 5.8 mph - N/A   Mostly Cloudy
5:02 PM 71.6 °F 62.6 °F 73% 29.84 in 10.0 mi SSW 4.6 mph - N/A   Scattered Clouds
5:53 PM 71.1 °F 63.0 °F 75% 29.83 in 10.0 mi South 4.6 mph - N/A   Mostly Cloudy
6:53 PM 72.0 °F 63.0 °F 73% 29.81 in 10.0 mi South 6.9 mph - N/A   Partly Cloudy
7:53 PM 68.0 °F 63.0 °F 84% 29.81 in 10.0 mi SSW 3.5 mph - N/A   Partly Cloudy
8:53 PM 66.9 °F 63.0 °F 87% 29.81 in 10.0 mi South 3.5 mph - N/A   Mostly Cloudy
9:53 PM 66.9 °F 63.0 °F 87% 29.81 in 10.0 mi SSW 4.6 mph - N/A   Mostly Cloudy
10:53 PM 66.0 °F 63.0 °F 90% 29.82 in 10.0 mi Calm Calm - N/A   Overcast
11:31 PM 66.2 °F 62.6 °F 88% 29.82 in 9.0 mi South 4.6 mph - 0.00 in Rain Light Rain
11:40 PM 66.2 °F 64.4 °F 94% 29.82 in 10.0 mi Calm Calm - 0.00 in Rain Light Rain
11:53 PM 66.0 °F 64.0 °F 93% 29.83 in 10.0 mi WSW 3.5 mph - 0.00 in   Overcast